Location: Ariel
(45.9570°N, 122.5700°W)
Time: 04:17:52
(UTC-07:00)

Vanguard 3 - Pass Details

Date: 26 August 2019
Orbit: 508 x 3263 km, 33.4° (Epoch: 22 September)

Event Time Altitude Azimuth Distance (km) Brightness Sun altitude
Rises 17:11:27 0° 236° (SW) 5,609 12.5 28.1°
Reaches altitude 10° 17:16:26 10° 226° (SW) 4,083 11.8 27.3°
Maximum altitude 17:24:16 26° 175° (S) 2,191 9.6 26.0°
Drops below altitude 10° 17:29:24 10° 120° (ESE) 2,595 9.4 25.1°
Sets 17:31:49 0° 107° (ESE) 3,269 9.8 24.7°
